Time,TemperatureF,DewpointF,PressureIn,WindDirection,WindDirectionDegrees,WindSpeedMPH,WindSpeedGustMPH,Humidity,HourlyPrecipIn,Conditions,Clouds,dailyrainin,SoftwareType,DateUTC
2013-07-07 00:01:00,69.1,64.7,29.92,NE,43,0.0,0.0,86,0.00,,---,0.00,VWS V14.01,2013-07-07 05:01:00,
2013-07-07 00:06:00,68.9,64.6,29.92,NE,43,0.0,0.0,86,0.00,,---,0.00,VWS V14.01,2013-07-07 05:06:00,
2013-07-07 00:11:00,68.8,64.4,29.92,NE,43,0.0,0.0,86,0.00,,---,0.00,VWS V14.01,2013-07-07 05:11:00,
2013-07-07 00:16:00,68.6,64.2,29.91,NE,43,0.0,0.0,86,0.00,,---,0.00,VWS V14.01,2013-07-07 05:16:00,
2013-07-07 00:21:00,68.4,64.1,29.92,NE,43,0.0,0.0,86,0.00,,---,0.00,VWS V14.01,2013-07-07 05:21:00,
2013-07-07 00:26:00,68.4,64.4,29.91,NE,43,0.0,0.0,87,0.00,,---,0.00,VWS V14.01,2013-07-07 05:26:00,
2013-07-07 00:31:00,68.3,64.3,29.92,NE,43,0.0,0.0,87,0.00,,---,0.00,VWS V14.01,2013-07-07 05:31:00,
2013-07-07 00:36:00,68.1,64.1,29.92,NE,43,0.0,0.0,87,0.00,,---,0.00,VWS V14.01,2013-07-07 05:36:00,
2013-07-07 00:41:00,68.1,64.4,29.92,NE,43,0.0,0.0,88,0.00,,---,0.00,VWS V14.01,2013-07-07 05:41:00,
2013-07-07 00:46:00,68.1,64.4,29.92,NE,43,0.0,0.0,88,0.00,,---,0.00,VWS V14.01,2013-07-07 05:46:00,
2013-07-07 00:51:00,67.9,64.2,29.92,NE,43,0.0,0.0,88,0.00,,---,0.00,VWS V14.01,2013-07-07 05:51:00,
2013-07-07 00:56:00,67.8,64.1,29.92,NE,43,0.0,0.0,88,0.00,,---,0.00,VWS V14.01,2013-07-07 05:56:00,
2013-07-07 01:01:00,67.6,63.9,29.92,NE,43,0.0,0.0,88,0.00,,---,0.00,VWS V14.01,2013-07-07 06:01:00,
2013-07-07 01:06:00,67.4,63.7,29.92,NE,43,0.0,0.0,88,0.00,,---,0.00,VWS V14.01,2013-07-07 06:06:00,
2013-07-07 01:11:00,67.4,63.7,29.92,NE,43,0.0,0.0,88,0.00,,---,0.00,VWS V14.01,2013-07-07 06:11:00,
2013-07-07 01:16:00,67.3,64.0,29.92,NE,43,0.0,0.0,89,0.00,,---,0.00,VWS V14.01,2013-07-07 06:16:00,
2013-07-07 01:22:00,67.3,64.0,29.92,NE,43,0.0,0.0,89,0.00,,---,0.00,VWS V14.01,2013-07-07 06:22:00,
2013-07-07 01:27:00,67.1,63.8,29.91,NE,43,0.0,0.0,89,0.00,,---,0.00,VWS V14.01,2013-07-07 06:27:00,
2013-07-07 01:32:00,67.1,63.8,29.91,NE,43,0.0,0.0,89,0.00,,---,0.00,VWS V14.01,2013-07-07 06:32:00,
2013-07-07 01:37:00,66.9,63.6,29.91,NE,43,0.0,0.0,89,0.00,,---,0.00,VWS V14.01,2013-07-07 06:37:00,
2013-07-07 01:42:00,66.9,63.6,29.91,NE,43,0.0,0.0,89,0.00,,---,0.00,VWS V14.01,2013-07-07 06:42:00,
2013-07-07 01:47:00,66.8,63.5,29.91,NE,43,0.0,0.0,89,0.00,,---,0.00,VWS V14.01,2013-07-07 06:47:00,
2013-07-07 01:52:00,66.6,63.3,29.91,NE,43,0.0,0.0,89,0.00,,---,0.00,VWS V14.01,2013-07-07 06:52:00,
2013-07-07 01:57:00,66.4,63.1,29.91,NE,43,0.0,0.0,89,0.00,,---,0.00,VWS V14.01,2013-07-07 06:57:00,
2013-07-07 02:02:00,66.4,63.1,29.92,NE,43,0.0,0.0,89,0.00,,---,0.00,VWS V14.01,2013-07-07 07:02:00,
2013-07-07 02:06:00,66.3,63.0,29.92,NE,43,0.0,0.0,89,0.00,,---,0.00,VWS V14.01,2013-07-07 07:06:00,
2013-07-07 02:11:00,66.3,63.3,29.92,NE,43,0.0,0.0,90,0.00,,---,0.00,VWS V14.01,2013-07-07 07:11:00,
2013-07-07 02:16:00,66.3,63.3,29.91,NE,43,0.0,0.0,90,0.00,,---,0.00,VWS V14.01,2013-07-07 07:16:00,
2013-07-07 02:22:00,66.1,63.1,29.91,NE,43,0.0,0.0,90,0.00,,---,0.00,VWS V14.01,2013-07-07 07:22:00,
2013-07-07 02:27:00,66.0,63.0,29.91,NE,43,0.0,0.0,90,0.00,,---,0.00,VWS V14.01,2013-07-07 07:27:00,
2013-07-07 02:32:00,65.8,62.8,29.91,NE,43,0.0,0.0,90,0.00,,---,0.00,VWS V14.01,2013-07-07 07:32:00,
2013-07-07 02:37:00,65.6,62.6,29.91,NE,43,0.0,0.0,90,0.00,,---,0.00,VWS V14.01,2013-07-07 07:37:00,
2013-07-07 02:42:00,65.6,62.6,29.91,NE,43,0.0,0.0,90,0.00,,---,0.00,VWS V14.01,2013-07-07 07:42:00,
2013-07-07 02:47:00,65.5,62.5,29.91,NE,43,0.0,0.0,90,0.00,,---,0.00,VWS V14.01,2013-07-07 07:47:00,
2013-07-07 02:52:00,65.5,62.8,29.92,NE,43,0.0,0.0,91,0.00,,---,0.00,VWS V14.01,2013-07-07 07:52:00,
2013-07-07 02:57:00,65.5,62.8,29.92,NE,43,0.0,0.0,91,0.00,,---,0.00,VWS V14.01,2013-07-07 07:57:00,
2013-07-07 03:02:00,65.5,63.1,29.92,NE,43,0.0,0.0,92,0.00,,---,0.00,VWS V14.01,2013-07-07 08:02:00,
2013-07-07 03:07:00,65.6,63.2,29.92,NE,43,0.0,0.0,92,0.00,,---,0.00,VWS V14.01,2013-07-07 08:07:00,
2013-07-07 03:12:00,65.6,63.2,29.92,NE,43,0.0,0.0,92,0.00,,---,0.00,VWS V14.01,2013-07-07 08:12:00,
2013-07-07 03:17:00,65.6,63.2,29.91,NE,43,0.0,0.0,92,0.00,,---,0.00,VWS V14.01,2013-07-07 08:17:00,
2013-07-07 03:22:00,65.6,63.2,29.91,NE,43,0.0,0.0,92,0.00,,---,0.00,VWS V14.01,2013-07-07 08:22:00,
2013-07-07 03:27:00,65.5,63.1,29.91,NE,43,0.0,0.0,92,0.00,,---,0.00,VWS V14.01,2013-07-07 08:27:00,
2013-07-07 03:32:00,65.5,63.1,29.92,NE,43,0.0,0.0,92,0.00,,---,0.00,VWS V14.01,2013-07-07 08:32:00,
2013-07-07 03:37:00,65.3,62.9,29.92,NE,43,0.0,0.0,92,0.00,,---,0.00,VWS V14.01,2013-07-07 08:37:00,
2013-07-07 03:42:00,65.2,62.8,29.92,NE,43,0.0,0.0,92,0.00,,---,0.00,VWS V14.01,2013-07-07 08:42:00,
2013-07-07 03:47:00,65.3,63.2,29.92,NE,43,0.0,0.0,93,0.00,,---,0.00,VWS V14.01,2013-07-07 08:47:00,
2013-07-07 03:52:00,65.2,63.1,29.92,NE,43,0.0,0.0,93,0.00,,---,0.00,VWS V14.01,2013-07-07 08:52:00,
2013-07-07 03:57:00,65.2,62.8,29.92,NE,43,0.0,0.0,92,0.00,,---,0.00,VWS V14.01,2013-07-07 08:57:00,
2013-07-07 04:02:00,65.0,62.6,29.92,NE,43,0.0,0.0,92,0.00,,---,0.00,VWS V14.01,2013-07-07 09:02:00,
2013-07-07 04:07:00,64.8,62.4,29.92,NE,43,0.0,0.0,92,0.00,,---,0.00,VWS V14.01,2013-07-07 09:07:00,
2013-07-07 04:12:00,64.7,62.3,29.92,NE,43,0.0,0.0,92,0.00,,---,0.00,VWS V14.01,2013-07-07 09:12:00,
2013-07-07 04:17:00,64.5,62.1,29.92,NE,43,0.0,0.0,92,0.00,,---,0.00,VWS V14.01,2013-07-07 09:17:00,
2013-07-07 04:22:00,64.5,62.1,29.92,NE,43,0.0,0.0,92,0.00,,---,0.00,VWS V14.01,2013-07-07 09:22:00,
2013-07-07 04:27:00,64.3,61.9,29.92,NE,43,0.0,0.0,92,0.00,,---,0.00,VWS V14.01,2013-07-07 09:27:00,
2013-07-07 04:32:00,64.3,62.2,29.92,NE,43,0.0,0.0,93,0.00,,---,0.00,VWS V14.01,2013-07-07 09:32:00,
2013-07-07 04:37:00,64.2,62.1,29.92,NE,43,0.0,0.0,93,0.00,,---,0.00,VWS V14.01,2013-07-07 09:37:00,
2013-07-07 04:42:00,64.2,62.1,29.92,NE,43,0.0,0.0,93,0.00,,---,0.00,VWS V14.01,2013-07-07 09:42:00,
2013-07-07 04:47:00,64.2,62.1,29.92,NE,43,0.0,0.0,93,0.00,,---,0.00,VWS V14.01,2013-07-07 09:47:00,
2013-07-07 04:52:00,64.2,62.1,29.92,NE,43,0.0,0.0,93,0.00,,---,0.00,VWS V14.01,2013-07-07 09:52:00,
2013-07-07 04:57:00,64.0,61.9,29.92,NE,43,0.0,0.0,93,0.00,,---,0.00,VWS V14.01,2013-07-07 09:57:00,
2013-07-07 05:02:00,64.0,61.9,29.92,NE,43,0.0,0.0,93,0.00,,---,0.00,VWS V14.01,2013-07-07 10:02:00,
2013-07-07 05:07:00,64.0,61.9,29.92,NE,43,0.0,0.0,93,0.00,,---,0.00,VWS V14.01,2013-07-07 10:07:00,
2013-07-07 05:12:00,64.0,61.9,29.92,NE,43,0.0,0.0,93,0.00,,---,0.00,VWS V14.01,2013-07-07 10:12:00,
2013-07-07 05:17:00,64.0,61.9,29.92,NE,43,0.0,0.0,93,0.00,,---,0.00,VWS V14.01,2013-07-07 10:17:00,
2013-07-07 05:22:00,64.2,62.1,29.92,NE,43,0.0,0.0,93,0.00,,---,0.00,VWS V14.01,2013-07-07 10:22:00,
2013-07-07 05:27:00,64.5,62.4,29.92,NE,43,0.0,0.0,93,0.00,,---,0.00,VWS V14.01,2013-07-07 10:27:00,
2013-07-07 05:32:00,65.0,63.5,29.92,NE,43,0.0,0.0,95,0.00,,---,0.00,VWS V14.01,2013-07-07 10:32:00,
2013-07-07 05:37:00,65.2,63.4,29.92,NE,43,0.0,0.0,94,0.00,,---,0.00,VWS V14.01,2013-07-07 10:37:00,
2013-07-07 05:42:00,65.0,63.2,29.92,NE,43,0.0,0.0,94,0.00,,---,0.00,VWS V14.01,2013-07-07 10:42:00,
2013-07-07 05:47:00,65.0,63.2,29.92,NE,43,0.0,1.0,94,0.00,,---,0.00,VWS V14.01,2013-07-07 10:47:00,
2013-07-07 05:52:00,64.8,63.0,29.93,NE,43,0.0,0.0,94,0.00,,---,0.00,VWS V14.01,2013-07-07 10:52:00,
2013-07-07 05:57:00,64.7,62.9,29.93,NE,43,0.0,0.0,94,0.00,,---,0.00,VWS V14.01,2013-07-07 10:57:00,
2013-07-07 06:03:00,64.5,62.4,29.93,NE,43,0.0,0.0,93,0.00,,---,0.00,VWS V14.01,2013-07-07 11:03:00,
2013-07-07 06:08:00,64.3,62.2,29.93,NE,43,0.0,0.0,93,0.00,,---,0.00,VWS V14.01,2013-07-07 11:08:00,
2013-07-07 06:13:00,64.3,62.2,29.93,NE,43,0.0,0.0,93,0.00,,---,0.00,VWS V14.01,2013-07-07 11:13:00,
2013-07-07 06:18:00,64.0,61.9,29.93,NE,43,0.0,0.0,93,0.00,,---,0.00,VWS V14.01,2013-07-07 11:18:00,
2013-07-07 06:23:00,63.9,61.8,29.93,NE,43,0.0,0.0,93,0.00,,---,0.00,VWS V14.01,2013-07-07 11:23:00,
2013-07-07 06:28:00,63.9,62.1,29.93,NE,43,0.0,0.0,94,0.00,,---,0.00,VWS V14.01,2013-07-07 11:28:00,
2013-07-07 06:33:00,63.9,62.1,29.93,NE,43,0.0,0.0,94,0.00,,---,0.00,VWS V14.01,2013-07-07 11:33:00,
2013-07-07 06:38:00,64.3,62.8,29.93,NE,43,0.0,0.0,95,0.00,,---,0.00,VWS V14.01,2013-07-07 11:38:00,
2013-07-07 06:43:00,64.5,63.0,29.94,NE,43,0.0,0.0,95,0.00,,---,0.00,VWS V14.01,2013-07-07 11:43:00,
2013-07-07 06:48:00,65.0,63.2,29.94,NE,43,0.0,0.0,94,0.00,,---,0.00,VWS V14.01,2013-07-07 11:48:00,
2013-07-07 06:53:00,65.0,63.5,29.94,NE,43,0.0,0.0,95,0.00,,---,0.00,VWS V14.01,2013-07-07 11:53:00,
2013-07-07 06:58:00,65.5,64.0,29.94,NE,43,0.0,0.0,95,0.00,,---,0.00,VWS V14.01,2013-07-07 11:58:00,
2013-07-07 07:03:00,66.0,64.5,29.94,NE,43,0.0,0.0,95,0.00,,---,0.00,VWS V14.01,2013-07-07 12:03:00,
2013-07-07 07:08:00,66.4,64.9,29.94,NE,43,0.0,0.0,95,0.00,,---,0.00,VWS V14.01,2013-07-07 12:08:00,
2013-07-07 07:13:00,66.8,65.3,29.95,NE,43,0.0,0.0,95,0.00,,---,0.00,VWS V14.01,2013-07-07 12:13:00,
2013-07-07 07:18:00,67.6,66.1,29.95,NE,43,0.0,0.0,95,0.00,,---,0.00,VWS V14.01,2013-07-07 12:18:00,
2013-07-07 07:23:00,67.9,66.4,29.95,NE,43,0.0,0.0,95,0.00,,---,0.00,VWS V14.01,2013-07-07 12:23:00,
2013-07-07 07:28:00,68.9,67.4,29.95,NE,43,0.0,0.0,95,0.00,,---,0.00,VWS V14.01,2013-07-07 12:28:00,
2013-07-07 07:33:00,69.8,68.3,29.95,NE,43,0.0,0.0,95,0.00,,---,0.00,VWS V14.01,2013-07-07 12:33:00,
2013-07-07 07:38:00,70.4,68.3,29.95,NE,43,0.0,1.0,93,0.00,,---,0.00,VWS V14.01,2013-07-07 12:38:00,
2013-07-07 07:43:00,70.8,68.7,29.95,NE,43,0.0,0.0,93,0.00,,---,0.00,VWS V14.01,2013-07-07 12:43:00,
2013-07-07 07:48:00,71.5,68.4,29.96,NE,43,1.0,1.0,90,0.00,,---,0.00,VWS V14.01,2013-07-07 12:48:00,
2013-07-07 07:53:00,72.5,69.4,29.96,NE,43,0.0,1.0,90,0.00,,---,0.00,VWS V14.01,2013-07-07 12:53:00,
2013-07-07 07:58:00,73.0,68.9,29.96,NE,43,1.0,2.0,87,0.00,,---,0.00,VWS V14.01,2013-07-07 12:58:00,
2013-07-07 08:03:00,73.2,69.1,29.96,NE,43,0.0,3.0,87,0.00,,---,0.00,VWS V14.01,2013-07-07 13:03:00,
2013-07-07 08:08:00,73.7,69.6,29.96,NE,51,1.0,3.0,87,0.00,,---,0.00,VWS V14.01,2013-07-07 13:08:00,
2013-07-07 08:13:00,73.9,68.8,29.96,ENE,59,2.0,3.0,84,0.00,,---,0.00,VWS V14.01,2013-07-07 13:13:00,
2013-07-07 08:18:00,74.7,69.2,29.96,ENE,59,3.0,3.0,83,0.00,,---,0.00,VWS V14.01,2013-07-07 13:18:00,
2013-07-07 08:23:00,74.9,69.0,29.96,NE,54,3.0,3.0,82,0.00,,---,0.00,VWS V14.01,2013-07-07 13:23:00,
2013-07-07 08:28:00,75.6,69.7,29.96,NE,53,2.0,3.0,82,0.00,,---,0.00,VWS V14.01,2013-07-07 13:28:00,
2013-07-07 08:33:00,76.0,70.1,29.97,NE,53,1.0,3.0,82,0.00,,---,0.00,VWS V14.01,2013-07-07 13:33:00,
2013-07-07 08:38:00,76.7,70.4,29.97,NE,53,1.0,3.0,81,0.00,,---,0.00,VWS V14.01,2013-07-07 13:38:00,
2013-07-07 08:43:00,77.0,70.7,29.97,NE,53,1.0,2.0,81,0.00,,---,0.00,VWS V14.01,2013-07-07 13:43:00,
2013-07-07 08:48:00,77.9,71.6,29.97,NE,53,1.0,2.0,81,0.00,,---,0.00,VWS V14.01,2013-07-07 13:48:00,
2013-07-07 08:53:00,78.1,71.8,29.97,ENE,64,0.0,2.0,81,0.00,,---,0.00,VWS V14.01,2013-07-07 13:53:00,
2013-07-07 08:58:00,78.8,72.5,29.97,ENE,64,2.0,3.0,81,0.00,,---,0.00,VWS V14.01,2013-07-07 13:58:00,
2013-07-07 09:03:00,78.8,72.5,29.97,ENE,64,2.0,2.0,81,0.00,,---,0.00,VWS V14.01,2013-07-07 14:03:00,
2013-07-07 09:08:00,79.6,71.0,29.98,ENE,64,0.0,2.0,75,0.00,,---,0.00,VWS V14.01,2013-07-07 14:08:00,
2013-07-07 09:13:00,80.1,71.1,29.98,ENE,64,3.0,3.0,74,0.00,,---,0.00,VWS V14.01,2013-07-07 14:13:00,
2013-07-07 09:18:00,80.5,71.8,29.98,ESE,116,1.0,3.0,75,0.00,,---,0.00,VWS V14.01,2013-07-07 14:18:00,
2013-07-07 09:23:00,80.9,71.8,29.98,ESE,116,1.0,1.0,74,0.00,,---,0.00,VWS V14.01,2013-07-07 14:23:00,
2013-07-07 09:28:00,81.1,72.0,29.98,ENE,66,3.0,5.0,74,0.00,,---,0.00,VWS V14.01,2013-07-07 14:28:00,
2013-07-07 09:33:00,80.9,71.8,29.98,ENE,61,5.0,6.0,74,0.00,,---,0.00,VWS V14.01,2013-07-07 14:33:00,
2013-07-07 09:38:00,80.9,71.8,29.98,ENE,60,1.0,6.0,74,0.00,,---,0.00,VWS V14.01,2013-07-07 14:38:00,
2013-07-07 09:43:00,81.8,72.7,29.98,ENE,61,1.0,2.0,74,0.00,,---,0.00,VWS V14.01,2013-07-07 14:43:00,
2013-07-07 09:48:00,82.4,71.6,29.98,ENE,60,3.0,3.0,70,0.00,,---,0.00,VWS V14.01,2013-07-07 14:48:00,
2013-07-07 09:53:00,82.6,72.2,29.98,ENE,59,3.0,6.0,71,0.00,,---,0.00,VWS V14.01,2013-07-07 14:53:00,
2013-07-07 09:58:00,83.0,73.1,29.98,NE,50,3.0,6.0,72,0.00,,---,0.00,VWS V14.01,2013-07-07 14:58:00,
2013-07-07 10:03:00,83.0,72.6,29.98,ENE,57,1.0,2.0,71,0.00,,---,0.00,VWS V14.01,2013-07-07 15:03:00,
2013-07-07 10:08:00,83.2,72.4,29.98,North,11,2.0,2.0,70,0.00,,---,0.00,VWS V14.01,2013-07-07 15:08:00,
2013-07-07 10:13:00,83.0,72.2,29.98,NE,40,2.0,6.0,70,0.00,,---,0.00,VWS V14.01,2013-07-07 15:13:00,
2013-07-07 10:18:00,83.2,72.8,29.98,South,180,1.0,6.0,71,0.00,,---,0.00,VWS V14.01,2013-07-07 15:18:00,
2013-07-07 10:23:00,83.4,73.0,29.98,East,84,1.0,3.0,71,0.00,,---,0.00,VWS V14.01,2013-07-07 15:23:00,
2013-07-07 10:28:00,83.6,72.4,29.98,NNE,27,3.0,5.0,69,0.00,,---,0.00,VWS V14.01,2013-07-07 15:28:00,
2013-07-07 10:33:00,83.4,72.2,29.98,NE,43,2.0,5.0,69,0.00,,---,0.00,VWS V14.01,2013-07-07 15:33:00,
2013-07-07 10:38:00,83.8,73.0,29.98,ENE,63,2.0,5.0,70,0.00,,---,0.00,VWS V14.01,2013-07-07 15:38:00,
2013-07-07 10:43:00,83.8,73.4,29.98,NE,54,2.0,2.0,71,0.00,,---,0.00,VWS V14.01,2013-07-07 15:43:00,
2013-07-07 10:48:00,83.6,73.2,29.98,SE,140,5.0,5.0,71,0.00,,---,0.00,VWS V14.01,2013-07-07 15:48:00,
2013-07-07 10:53:00,83.8,73.4,29.98,SE,140,3.0,3.0,71,0.00,,---,0.00,VWS V14.01,2013-07-07 15:53:00,
2013-07-07 10:58:00,83.8,73.4,29.98,SE,129,1.0,5.0,71,0.00,,---,0.00,VWS V14.01,2013-07-07 15:58:00,
2013-07-07 11:03:00,84.5,74.1,29.98,SW,228,3.0,5.0,71,0.00,,---,0.00,VWS V14.01,2013-07-07 16:03:00,
2013-07-07 11:08:00,84.5,73.2,29.98,South,191,2.0,5.0,69,0.00,,---,0.00,VWS V14.01,2013-07-07 16:08:00,
2013-07-07 11:13:00,84.7,72.5,29.98,SSE,166,2.0,5.0,67,0.00,,---,0.00,VWS V14.01,2013-07-07 16:13:00,
2013-07-07 11:18:00,85.1,72.0,29.98,South,181,3.0,5.0,65,0.00,,---,0.00,VWS V14.01,2013-07-07 16:18:00,
2013-07-07 11:23:00,85.5,72.4,29.98,East,80,2.0,6.0,65,0.00,,---,0.00,VWS V14.01,2013-07-07 16:23:00,
2013-07-07 11:28:00,85.7,72.1,29.98,NE,40,3.0,6.0,64,0.00,,---,0.00,VWS V14.01,2013-07-07 16:28:00,
2013-07-07 11:33:00,85.7,72.6,29.98,NE,54,5.0,5.0,65,0.00,,---,0.00,VWS V14.01,2013-07-07 16:33:00,
2013-07-07 11:38:00,86.1,73.0,29.98,NE,56,2.0,7.0,65,0.00,,---,0.00,VWS V14.01,2013-07-07 16:38:00,
2013-07-07 11:43:00,86.5,72.9,29.97,SE,140,2.0,2.0,64,0.00,,---,0.00,VWS V14.01,2013-07-07 16:43:00,
2013-07-07 11:48:00,87.0,73.4,29.97,SSW,207,3.0,6.0,64,0.00,,---,0.00,VWS V14.01,2013-07-07 16:48:00,
2013-07-07 11:53:00,87.2,73.6,29.97,ENE,57,1.0,2.0,64,0.00,,---,0.00,VWS V14.01,2013-07-07 16:53:00,
2013-07-07 11:58:00,87.4,71.8,29.97,NE,56,1.0,5.0,60,0.00,,---,0.00,VWS V14.01,2013-07-07 16:58:00,
2013-07-07 12:03:00,86.7,72.1,29.97,NNE,26,2.0,2.0,62,0.00,,---,0.00,VWS V14.01,2013-07-07 17:03:00,
2013-07-07 12:08:00,87.0,70.9,29.97,ENE,61,3.0,3.0,59,0.00,,---,0.00,VWS V14.01,2013-07-07 17:08:00,
2013-07-07 12:13:00,86.7,70.7,29.97,ENE,61,2.0,3.0,59,0.00,,---,0.00,VWS V14.01,2013-07-07 17:13:00,
2013-07-07 12:18:00,86.5,70.5,29.97,ENE,57,0.0,5.0,59,0.00,,---,0.00,VWS V14.01,2013-07-07 17:18:00,
2013-07-07 12:23:00,87.2,71.1,29.97,SSW,201,2.0,3.0,59,0.00,,---,0.00,VWS V14.01,2013-07-07 17:23:00,
2013-07-07 12:28:00,88.0,72.4,29.97,ENE,78,2.0,6.0,60,0.00,,---,0.00,VWS V14.01,2013-07-07 17:28:00,
2013-07-07 12:33:00,88.2,72.6,29.97,South,176,2.0,2.0,60,0.00,,---,0.00,VWS V14.01,2013-07-07 17:33:00,
2013-07-07 12:38:00,88.0,71.4,29.97,South,179,5.0,8.0,58,0.00,,---,0.00,VWS V14.01,2013-07-07 17:38:00,
2013-07-07 12:43:00,87.8,71.2,29.97,South,186,1.0,3.0,58,0.00,,---,0.00,VWS V14.01,2013-07-07 17:43:00,
2013-07-07 12:48:00,87.2,71.1,29.97,ENE,64,3.0,3.0,59,0.00,,---,0.00,VWS V14.01,2013-07-07 17:48:00,
2013-07-07 12:53:00,87.2,70.6,29.96,ENE,59,2.0,2.0,58,0.00,,---,0.00,VWS V14.01,2013-07-07 17:53:00,
2013-07-07 12:58:00,87.8,70.2,29.96,NNE,26,3.0,5.0,56,0.00,,---,0.00,VWS V14.01,2013-07-07 17:58:00,
2013-07-07 13:03:00,87.8,70.7,29.96,NE,54,1.0,1.0,57,0.00,,---,0.00,VWS V14.01,2013-07-07 18:03:00,
2013-07-07 13:08:00,88.8,71.6,29.95,NE,51,5.0,8.0,57,0.00,,---,0.00,VWS V14.01,2013-07-07 18:08:00,
2013-07-07 13:13:00,88.8,69.5,29.96,East,84,2.0,2.0,53,0.00,,---,0.00,VWS V14.01,2013-07-07 18:13:00,
2013-07-07 13:18:00,88.6,68.7,29.95,ENE,66,5.0,5.0,52,0.00,,---,0.00,VWS V14.01,2013-07-07 18:18:00,
2013-07-07 13:23:00,88.4,67.4,29.95,NE,51,1.0,6.0,50,0.00,,---,0.00,VWS V14.01,2013-07-07 18:23:00,
2013-07-07 13:28:00,88.6,67.6,29.95,WNW,283,2.0,6.0,50,0.00,,---,0.00,VWS V14.01,2013-07-07 18:28:00,
2013-07-07 13:33:00,88.8,67.8,29.95,NE,46,0.0,2.0,50,0.00,,---,0.00,VWS V14.01,2013-07-07 18:33:00,
2013-07-07 13:38:00,89.9,71.0,29.95,ENE,63,5.0,5.0,54,0.00,,---,0.00,VWS V14.01,2013-07-07 18:38:00,
2013-07-07 13:43:00,89.9,68.2,29.95,NE,42,6.0,6.0,49,0.00,,---,0.00,VWS V14.01,2013-07-07 18:43:00,
2013-07-07 13:48:00,89.5,69.6,29.94,SSW,200,7.0,8.0,52,0.00,,---,0.00,VWS V14.01,2013-07-07 18:48:00,
2013-07-07 13:53:00,89.9,69.9,29.94,SE,133,5.0,6.0,52,0.00,,---,0.00,VWS V14.01,2013-07-07 18:53:00,
2013-07-07 13:58:00,89.7,68.0,29.94,ENE,74,2.0,6.0,49,0.00,,---,0.00,VWS V14.01,2013-07-07 18:58:00,
2013-07-07 14:03:00,89.9,68.2,29.94,ENE,60,1.0,3.0,49,0.00,,---,0.00,VWS V14.01,2013-07-07 19:03:00,
2013-07-07 14:08:00,89.7,68.0,29.94,ENE,63,3.0,5.0,49,0.00,,---,0.00,VWS V14.01,2013-07-07 19:08:00,
2013-07-07 14:13:00,89.9,69.9,29.94,SSW,198,2.0,3.0,52,0.00,,---,0.00,VWS V14.01,2013-07-07 19:13:00,
2013-07-07 14:18:00,90.3,70.3,29.94,NE,56,6.0,6.0,52,0.00,,---,0.00,VWS V14.01,2013-07-07 19:18:00,
2013-07-07 14:23:00,90.3,70.3,29.94,NE,50,1.0,2.0,52,0.00,,---,0.00,VWS V14.01,2013-07-07 19:23:00,
2013-07-07 14:28:00,90.7,70.7,29.93,SE,146,2.0,6.0,52,0.00,,---,0.00,VWS V14.01,2013-07-07 19:28:00,
2013-07-07 14:33:00,91.2,70.0,29.94,ENE,78,3.0,8.0,50,0.00,,---,0.00,VWS V14.01,2013-07-07 19:33:00,
2013-07-07 14:38:00,91.2,69.4,29.94,SSE,152,3.0,8.0,49,0.00,,---,0.00,VWS V14.01,2013-07-07 19:38:00,
2013-07-07 14:43:00,91.0,69.2,29.94,South,191,2.0,3.0,49,0.00,,---,0.00,VWS V14.01,2013-07-07 19:43:00,
2013-07-07 14:48:00,91.2,69.4,29.93,NE,51,5.0,7.0,49,0.00,,---,0.00,VWS V14.01,2013-07-07 19:48:00,
2013-07-07 14:53:00,91.2,69.4,29.93,NE,51,2.0,2.0,49,0.00,,---,0.00,VWS V14.01,2013-07-07 19:53:00,
2013-07-07 14:58:00,91.0,68.0,29.94,ENE,61,3.0,6.0,47,0.00,,---,0.00,VWS V14.01,2013-07-07 19:58:00,
2013-07-07 15:03:00,90.7,68.9,29.93,SW,217,1.0,2.0,49,0.00,,---,0.00,VWS V14.01,2013-07-07 20:03:00,
2013-07-07 15:08:00,90.7,68.9,29.93,North,354,1.0,3.0,49,0.00,,---,0.00,VWS V14.01,2013-07-07 20:08:00,
2013-07-07 15:13:00,90.7,68.9,29.93,NE,40,8.0,8.0,49,0.00,,---,0.00,VWS V14.01,2013-07-07 20:13:00,
2013-07-07 15:18:00,90.1,68.4,29.93,North,11,1.0,8.0,49,0.00,,---,0.00,VWS V14.01,2013-07-07 20:18:00,
2013-07-07 15:23:00,90.5,68.8,29.93,ENE,64,3.0,3.0,49,0.00,,---,0.00,VWS V14.01,2013-07-07 20:23:00,
2013-07-07 15:28:00,90.5,68.8,29.93,ENE,64,3.0,3.0,49,0.00,,---,0.00,VWS V14.01,2013-07-07 20:28:00,
2013-07-07 15:33:00,91.0,69.2,29.93,ENE,67,2.0,3.0,49,0.00,,---,0.00,VWS V14.01,2013-07-07 20:33:00,
2013-07-07 15:38:00,90.7,68.9,29.92,ENE,67,1.0,3.0,49,0.00,,---,0.00,VWS V14.01,2013-07-07 20:38:00,
2013-07-07 15:43:00,91.0,68.0,29.92,ENE,73,3.0,6.0,47,0.00,,---,0.00,VWS V14.01,2013-07-07 20:43:00,
2013-07-07 15:48:00,91.0,68.0,29.92,ENE,73,1.0,7.0,47,0.00,,---,0.00,VWS V14.01,2013-07-07 20:48:00,
2013-07-07 15:53:00,91.2,63.5,29.92,ENE,71,2.0,2.0,40,0.00,,---,0.00,VWS V14.01,2013-07-07 20:53:00,
2013-07-07 15:58:00,91.2,63.5,29.92,ENE,57,3.0,3.0,40,0.00,,---,0.00,VWS V14.01,2013-07-07 20:58:00,
2013-07-07 16:03:00,92.3,64.5,29.92,SE,133,3.0,6.0,40,0.00,,---,0.00,VWS V14.01,2013-07-07 21:03:00,
2013-07-07 16:08:00,93.2,63.8,29.92,SSW,195,2.0,6.0,38,0.00,,---,0.00,VWS V14.01,2013-07-07 21:08:00,
2013-07-07 16:13:00,93.2,65.3,29.92,NE,47,1.0,1.0,40,0.00,,---,0.00,VWS V14.01,2013-07-07 21:13:00,
2013-07-07 16:18:00,93.6,65.7,29.92,NNE,33,1.0,5.0,40,0.00,,---,0.00,VWS V14.01,2013-07-07 21:18:00,
2013-07-07 16:23:00,93.4,66.2,29.92,ENE,68,3.0,6.0,41,0.00,,---,0.00,VWS V14.01,2013-07-07 21:23:00,
2013-07-07 16:28:00,92.7,67.6,29.91,East,90,2.0,6.0,44,0.00,,---,0.00,VWS V14.01,2013-07-07 21:28:00,
2013-07-07 16:33:00,92.5,66.1,29.91,ENE,70,0.0,1.0,42,0.00,,---,0.00,VWS V14.01,2013-07-07 21:33:00,
2013-07-07 16:38:00,91.8,67.4,29.91,NE,56,3.0,3.0,45,0.00,,---,0.00,VWS V14.01,2013-07-07 21:38:00,
2013-07-07 16:43:00,91.8,66.8,29.91,WSW,251,2.0,5.0,44,0.00,,---,0.00,VWS V14.01,2013-07-07 21:43:00,
2013-07-07 16:48:00,92.3,65.2,29.91,WSW,246,1.0,5.0,41,0.00,,---,0.00,VWS V14.01,2013-07-07 21:48:00,
2013-07-07 16:53:00,92.3,65.2,29.91,SSE,162,3.0,3.0,41,0.00,,---,0.00,VWS V14.01,2013-07-07 21:53:00,
2013-07-07 16:58:00,92.3,65.2,29.91,ENE,77,1.0,3.0,41,0.00,,---,0.00,VWS V14.01,2013-07-07 21:58:00,
2013-07-07 17:03:00,92.9,65.8,29.90,SSE,147,2.0,5.0,41,0.00,,---,0.00,VWS V14.01,2013-07-07 22:03:00,
2013-07-07 17:08:00,92.7,65.6,29.90,NE,49,1.0,6.0,41,0.00,,---,0.00,VWS V14.01,2013-07-07 22:08:00,
2013-07-07 17:13:00,92.7,65.6,29.90,ENE,71,1.0,3.0,41,0.00,,---,0.00,VWS V14.01,2013-07-07 22:13:00,
2013-07-07 17:18:00,92.9,67.8,29.90,ENE,70,2.0,3.0,44,0.00,,---,0.00,VWS V14.01,2013-07-07 22:18:00,
2013-07-07 17:23:00,92.9,67.8,29.90,NNE,13,2.0,6.0,44,0.00,,---,0.00,VWS V14.01,2013-07-07 22:23:00,
2013-07-07 17:28:00,92.1,67.1,29.90,NE,54,2.0,6.0,44,0.00,,---,0.00,VWS V14.01,2013-07-07 22:28:00,
2013-07-07 17:33:00,91.8,66.8,29.90,ENE,60,1.0,3.0,44,0.00,,---,0.00,VWS V14.01,2013-07-07 22:33:00,
2013-07-07 17:38:00,92.3,67.2,29.90,ENE,60,1.0,3.0,44,0.00,,---,0.00,VWS V14.01,2013-07-07 22:38:00,
2013-07-07 17:43:00,92.3,67.2,29.90,SE,136,2.0,2.0,44,0.00,,---,0.00,VWS V14.01,2013-07-07 22:43:00,
2013-07-07 17:48:00,92.3,67.2,29.90,ENE,71,3.0,5.0,44,0.00,,---,0.00,VWS V14.01,2013-07-07 22:48:00,
2013-07-07 17:53:00,92.3,67.2,29.90,NE,37,3.0,3.0,44,0.00,,---,0.00,VWS V14.01,2013-07-07 22:53:00,
2013-07-07 17:58:00,92.1,67.1,29.90,NE,49,1.0,5.0,44,0.00,,---,0.00,VWS V14.01,2013-07-07 22:58:00,
2013-07-07 18:03:00,91.6,66.0,29.90,ENE,68,5.0,5.0,43,0.00,,---,0.00,VWS V14.01,2013-07-07 23:03:00,
2013-07-07 18:08:00,91.6,66.6,29.90,ENE,68,1.0,5.0,44,0.00,,---,0.00,VWS V14.01,2013-07-07 23:08:00,
2013-07-07 18:13:00,91.6,66.6,29.90,ENE,66,3.0,3.0,44,0.00,,---,0.00,VWS V14.01,2013-07-07 23:13:00,
2013-07-07 18:18:00,91.6,66.0,29.90,NE,40,1.0,6.0,43,0.00,,---,0.00,VWS V14.01,2013-07-07 23:18:00,
2013-07-07 18:23:00,91.6,66.0,29.90,South,173,0.0,3.0,43,0.00,,---,0.00,VWS V14.01,2013-07-07 23:23:00,
2013-07-07 18:28:00,92.1,65.0,29.90,NE,39,2.0,3.0,41,0.00,,---,0.00,VWS V14.01,2013-07-07 23:28:00,
2013-07-07 18:33:00,91.6,65.3,29.90,ENE,67,3.0,5.0,42,0.00,,---,0.00,VWS V14.01,2013-07-07 23:33:00,
2013-07-07 18:38:00,91.4,66.4,29.90,NE,42,1.0,6.0,44,0.00,,---,0.00,VWS V14.01,2013-07-07 23:38:00,
2013-07-07 18:43:00,91.2,66.3,29.90,NE,37,5.0,5.0,44,0.00,,---,0.00,VWS V14.01,2013-07-07 23:43:00,
2013-07-07 18:48:00,91.2,66.3,29.90,ENE,71,2.0,5.0,44,0.00,,---,0.00,VWS V14.01,2013-07-07 23:48:00,
2013-07-07 18:53:00,91.0,66.1,29.90,ENE,78,2.0,3.0,44,0.00,,---,0.00,VWS V14.01,2013-07-07 23:53:00,
2013-07-07 18:58:00,90.7,65.2,29.90,NE,56,2.0,3.0,43,0.00,,---,0.00,VWS V14.01,2013-07-07 23:58:00,
2013-07-07 19:03:00,90.7,65.2,29.89,ENE,59,1.0,1.0,43,0.00,,---,0.00,VWS V14.01,2013-07-08 00:03:00,
2013-07-07 19:08:00,90.7,65.2,29.90,ENE,59,1.0,1.0,43,0.00,,---,0.00,VWS V14.01,2013-07-08 00:08:00,
2013-07-07 19:13:00,90.7,65.2,29.90,ENE,59,1.0,3.0,43,0.00,,---,0.00,VWS V14.01,2013-07-08 00:13:00,
2013-07-07 19:18:00,90.5,65.0,29.90,ENE,59,3.0,3.0,43,0.00,,---,0.00,VWS V14.01,2013-07-08 00:18:00,
2013-07-07 19:19:00,90.5,65.0,29.90,ENE,57,2.0,3.0,43,0.00,,---,0.00,VWS V14.01,2013-07-08 00:19:00,
2013-07-07 19:24:00,90.5,67.5,29.90,ENE,61,1.0,2.0,47,0.00,,---,0.00,VWS V14.01,2013-07-08 00:24:00,
2013-07-07 19:29:00,90.1,66.6,29.90,ENE,60,0.0,3.0,46,0.00,,---,0.00,VWS V14.01,2013-07-08 00:29:00,
2013-07-07 19:34:00,90.1,67.8,29.90,ENE,60,0.0,0.0,48,0.00,,---,0.00,VWS V14.01,2013-07-08 00:34:00,
2013-07-07 19:39:00,90.7,68.3,29.90,ENE,60,0.0,0.0,48,0.00,,---,0.00,VWS V14.01,2013-07-08 00:39:00,
2013-07-07 19:44:00,90.7,68.3,29.90,ENE,61,1.0,1.0,48,0.00,,---,0.00,VWS V14.01,2013-07-08 00:44:00,
2013-07-07 19:49:00,90.7,68.3,29.90,ENE,60,0.0,1.0,48,0.00,,---,0.00,VWS V14.01,2013-07-08 00:49:00,
2013-07-07 19:54:00,90.5,68.2,29.90,ENE,60,0.0,0.0,48,0.00,,---,0.00,VWS V14.01,2013-07-08 00:54:00,
2013-07-07 19:59:00,90.5,68.2,29.90,ENE,60,0.0,0.0,48,0.00,,---,0.00,VWS V14.01,2013-07-08 00:59:00,
2013-07-07 20:04:00,89.3,67.1,29.90,ENE,60,0.0,1.0,48,0.00,,---,0.00,VWS V14.01,2013-07-08 01:04:00,
2013-07-07 20:09:00,88.4,66.2,29.90,ENE,60,0.0,1.0,48,0.00,,---,0.00,VWS V14.01,2013-07-08 01:09:00,
2013-07-07 20:14:00,87.6,65.5,29.90,ENE,60,0.0,0.0,48,0.00,,---,0.00,VWS V14.01,2013-07-08 01:14:00,
2013-07-07 20:19:00,85.9,64.0,29.91,ENE,60,0.0,0.0,48,0.00,,---,0.00,VWS V14.01,2013-07-08 01:19:00,
2013-07-07 20:24:00,84.9,72.3,29.91,ENE,61,0.0,0.0,66,0.00,,---,0.00,VWS V14.01,2013-07-08 01:24:00,
2013-07-07 20:29:00,84.1,72.0,29.91,ENE,61,0.0,0.0,67,0.00,,---,0.00,VWS V14.01,2013-07-08 01:29:00,
2013-07-07 20:34:00,84.0,72.3,29.91,ENE,60,0.0,0.0,68,0.00,,---,0.00,VWS V14.01,2013-07-08 01:34:00,
2013-07-07 20:39:00,83.0,71.8,29.91,ENE,61,0.0,0.0,69,0.00,,---,0.00,VWS V14.01,2013-07-08 01:39:00,
2013-07-07 20:44:00,83.0,71.8,29.91,ENE,61,0.0,0.0,69,0.00,,---,0.00,VWS V14.01,2013-07-08 01:44:00,
2013-07-07 20:49:00,81.8,70.6,29.91,ENE,60,0.0,0.0,69,0.00,,---,0.00,VWS V14.01,2013-07-08 01:49:00,
2013-07-07 20:54:00,81.4,71.9,29.91,ENE,60,0.0,0.0,73,0.00,,---,0.00,VWS V14.01,2013-07-08 01:54:00,
2013-07-07 20:59:00,81.1,71.6,29.91,ENE,61,0.0,0.0,73,0.00,,---,0.00,VWS V14.01,2013-07-08 01:59:00,
2013-07-07 21:04:00,80.5,71.1,29.91,ENE,61,0.0,0.0,73,0.00,,---,0.00,VWS V14.01,2013-07-08 02:04:00,
2013-07-07 21:09:00,79.8,71.2,29.91,ENE,61,0.0,0.0,75,0.00,,---,0.00,VWS V14.01,2013-07-08 02:09:00,
2013-07-07 21:14:00,79.4,71.2,29.92,ENE,61,0.0,0.0,76,0.00,,---,0.00,VWS V14.01,2013-07-08 02:14:00,
2013-07-07 21:19:00,79.4,71.6,29.92,ENE,61,0.0,0.0,77,0.00,,---,0.00,VWS V14.01,2013-07-08 02:19:00,
2013-07-07 21:24:00,78.6,71.2,29.92,ENE,61,0.0,0.0,78,0.00,,---,0.00,VWS V14.01,2013-07-08 02:24:00,
2013-07-07 21:29:00,78.3,71.3,29.92,ENE,61,0.0,0.0,79,0.00,,---,0.00,VWS V14.01,2013-07-08 02:29:00,
2013-07-07 21:34:00,78.3,71.3,29.92,ENE,61,0.0,0.0,79,0.00,,---,0.00,VWS V14.01,2013-07-08 02:34:00,
2013-07-07 21:39:00,78.3,71.3,29.93,ENE,61,0.0,0.0,79,0.00,,---,0.00,VWS V14.01,2013-07-08 02:39:00,
2013-07-07 21:44:00,77.2,70.2,29.92,ENE,61,0.0,0.0,79,0.00,,---,0.00,VWS V14.01,2013-07-08 02:44:00,
2013-07-07 21:49:00,77.0,70.7,29.93,ENE,61,0.0,0.0,81,0.00,,---,0.00,VWS V14.01,2013-07-08 02:49:00,
2013-07-07 21:54:00,77.0,70.7,29.93,ENE,61,0.0,0.0,81,0.00,,---,0.00,VWS V14.01,2013-07-08 02:54:00,
2013-07-07 21:59:00,76.3,70.1,29.93,ENE,61,0.0,0.0,81,0.00,,---,0.00,VWS V14.01,2013-07-08 02:59:00,
2013-07-07 22:04:00,76.0,70.1,29.93,ENE,61,0.0,0.0,82,0.00,,---,0.00,VWS V14.01,2013-07-08 03:04:00,
2013-07-07 22:09:00,75.8,69.9,29.93,ENE,61,0.0,0.0,82,0.00,,---,0.00,VWS V14.01,2013-07-08 03:09:00,
2013-07-07 22:14:00,75.6,69.7,29.94,ENE,61,0.0,0.0,82,0.00,,---,0.00,VWS V14.01,2013-07-08 03:14:00,
2013-07-07 22:19:00,75.6,70.1,29.94,ENE,61,0.0,0.0,83,0.00,,---,0.00,VWS V14.01,2013-07-08 03:19:00,
2013-07-07 22:24:00,75.3,69.8,29.94,ENE,61,0.0,0.0,83,0.00,,---,0.00,VWS V14.01,2013-07-08 03:24:00,
2013-07-07 22:29:00,75.1,69.6,29.94,ENE,61,0.0,0.0,83,0.00,,---,0.00,VWS V14.01,2013-07-08 03:29:00,
2013-07-07 22:34:00,75.1,69.6,29.94,ENE,61,0.0,0.0,83,0.00,,---,0.00,VWS V14.01,2013-07-08 03:34:00,
2013-07-07 22:39:00,74.9,69.4,29.94,ENE,61,0.0,0.0,83,0.00,,---,0.00,VWS V14.01,2013-07-08 03:39:00,
2013-07-07 22:44:00,74.6,69.1,29.95,ENE,61,0.0,0.0,83,0.00,,---,0.00,VWS V14.01,2013-07-08 03:44:00,
2013-07-07 22:49:00,74.6,69.1,29.95,ENE,61,0.0,1.0,83,0.00,,---,0.00,VWS V14.01,2013-07-08 03:49:00,
2013-07-07 22:54:00,74.6,69.8,29.95,ENE,61,0.0,0.0,85,0.00,,---,0.00,VWS V14.01,2013-07-08 03:54:00,
2013-07-07 22:59:00,74.7,69.2,29.95,ENE,61,0.0,0.0,83,0.00,,---,0.00,VWS V14.01,2013-07-08 03:59:00,
2013-07-07 23:01:00,74.7,69.2,29.95,ENE,61,0.0,0.0,83,0.00,,---,0.00,VWS V14.01,2013-07-08 04:01:00,
2013-07-07 23:06:00,74.7,69.2,29.95,ENE,61,0.0,0.0,83,0.00,,---,0.00,VWS V14.01,2013-07-08 04:06:00,
2013-07-07 23:11:00,74.6,69.1,29.95,ENE,61,0.0,0.0,83,0.00,,---,0.00,VWS V14.01,2013-07-08 04:11:00,
2013-07-07 23:16:00,74.6,69.4,29.95,ENE,61,0.0,0.0,84,0.00,,---,0.00,VWS V14.01,2013-07-08 04:16:00,
2013-07-07 23:21:00,74.4,69.3,29.95,ENE,61,0.0,0.0,84,0.00,,---,0.00,VWS V14.01,2013-07-08 04:21:00,
2013-07-07 23:26:00,74.4,69.3,29.95,ENE,61,0.0,0.0,84,0.00,,---,0.00,VWS V14.01,2013-07-08 04:26:00,
2013-07-07 23:31:00,74.4,69.3,29.95,ENE,61,0.0,0.0,84,0.00,,---,0.00,VWS V14.01,2013-07-08 04:31:00,
2013-07-07 23:36:00,74.4,69.3,29.95,ENE,61,0.0,0.0,84,0.00,,---,0.00,VWS V14.01,2013-07-08 04:36:00,
2013-07-07 23:41:00,74.4,69.3,29.95,ENE,61,0.0,0.0,84,0.00,,---,0.00,VWS V14.01,2013-07-08 04:41:00,
2013-07-07 23:46:00,74.4,69.6,29.95,ENE,61,0.0,0.0,85,0.00,,---,0.00,VWS V14.01,2013-07-08 04:46:00,
2013-07-07 23:51:00,73.9,69.1,29.95,ENE,61,0.0,0.0,85,0.00,,---,0.00,VWS V14.01,2013-07-08 04:51:00,
2013-07-07 23:56:00,73.7,68.9,29.96,ENE,61,0.0,0.0,85,0.00,,---,0.00,VWS V14.01,2013-07-08 04:56:00,